Tracking 31011 objects as of 12-Jul-2025
HD Live streaming from Space Station
objects crossing your sky now

ERS 9

Track ERS 9 now!
10-day predictions
ERS 9 is classified as:


NORAD ID: 635
Int'l Code: 1963-030B
Perigee: 3,661.3 km
Apogee: 3,755.2 km
Inclination: 88.4 °
Period: 167.8 minutes
Semi major axis: 10079 km
RCS: 0.0885 m2 (small)
Launch date: July 19, 1963
Source: United States (US)
Launch site: AIR FORCE WESTERN TEST RANGE (AFWTR)
Your satellite tracking list
Your tracking list is empty




NASA's NSSDC Master Catalog

Two Line Element Set (TLE):
1 00635U 63030B   25187.33266723  .00000000  00000-0 -10737-2 0  9992
2 00635  88.4124 234.1234 0046588  18.3200 341.9317  8.57948244940784
Source of the keplerian elements: AFSPC